sat.trackr.live / text

‹ back to catalog

STARLINK-5720

NORAD 55619 · 2023-020BC

PAYLOAD ACTIVE UNKNOWN

§ Identity

Operator
Country
US
Launch date
2023-02-12
Launch site
AFETR
Launch vehicle
Mass (kg)
RCS (m²)

Purposes: comms

External: N2YO · Heavens-Above · Gunter

§ Orbital elements

Epoch: 2026-05-25T01:59:23.277120Z

Period
94.27 min
Inclination
43.0020°
Eccentricity
0.0000994
Mean motion
15.27575614 rev/d
Perigee alt
482.4 km
Apogee alt
483.7 km
Semi-major
6,861.2 km
B*
7.1678e-7
RAAN
282.7123°
Arg perigee
275.7296°
Mean anomaly
84.3442°
Rev number
18,071

§ Raw data

STARLINK-57201 55619U 23020BC  26145.08290830 -.00000242  00000+0  71678-6 0  99942 55619  43.0020 282.7123 0000994 275.7296  84.3442 15.27575614180717

JSON: /api/v1/satellites/55619 · /tle

For live sub-satellite position, see the globe view (requires WebGL).

§ Visibility from observer

Set your observer location to see the next 7 days of passes ≥ 10°. The values pass through the URL so the page stays shareable.

No JS? Fill the form by hand. The geolocation button needs JavaScript.